User: anonymous   Login
Location: Unspecified
(43.4680°N, 87.1740°E)
Time: 19:31:02
(UTC+00:00)
Language:

Cosmos 1937 Rocket - Orbit

View from above orbital plane
View from above orbital plane
View from above satellite
View from above satellite

Ground track
Ground track

The orbit data is extracted from the following two-line orbital elements,

1 19039U 88029B   21172.25015142  .00000057  00000-0  27228-4 0  9999
2 19039  74.0476 121.2215 0024822 289.7246  70.1231 14.38518892741502
Epoch (UTC): 21 June 2021 06:00:13
Eccentricity: 0.0024822
inclination: 74.0476°
perigee height: 745 km
apogee height: 781 km
right ascension of ascending node: 121.2215°
argument of perigee: 289.7246°
revolutions per day: 14.38518892
mean anomaly at epoch: 70.1231°
orbit number at epoch: 74150

The dashed part of the orbit path shows where the satellite is in the earth's shadow,  

DLR